DW5679 Weather Reports


Display with metric or nautical units.
time (UTC)temp
F
wind
direction
speed
MPH
gust
MPH
rain 1hr
in
rain 24hr
in
rain mn
in
humidity
%
barometer
mb
20260902113028 73 52 0.0 0.0 0.00 0.00 0.00 89 1017.2
20260902113026 73 81 0.0 0.0 0.00 0.00 0.00 89 1017.5
20260902111526 73 52 0.0 0.0 0.00 0.00 0.00 89 1017.2
20260902110040 74 81 0.0 0.0 0.00 0.00 0.00 88 1017.4
20260902110023 73 51 0.0 0.0 0.00 0.00 0.00 89 1017.0
20260902104621 74 52 0.0 0.0 0.00 0.00 0.00 88 1016.9
20260902104534 74 82 0.0 0.0 0.00 0.00 0.00 88 1017.3
20260902103045 74 51 0.0 0.0 0.00 0.00 0.00 89 1016.9
20260902103032 74 81 0.0 0.0 0.00 0.00 0.00 88 1017.4
20260902101524 74 52 0.0 0.0 0.00 0.00 0.00 86 1016.8
20260902101518 74 81 0.0 0.0 0.00 0.00 0.00 86 1017.3
20260902100027 75 81 0.0 0.0 0.00 0.00 0.00 86 1017.2
20260902100010 74 52 0.0 0.0 0.00 0.00 0.00 86 1016.7
20260902094527 75 81 0.0 0.0 0.00 0.00 0.00 86 1017.2
20260902094509 74 51 0.0 0.0 0.00 0.00 0.00 87 1016.8
20260902093036 75 82 0.0 0.0 0.00 0.00 0.00 87 1017.0
20260902093008 75 52 0.0 0.0 0.00 0.00 0.00 88 1016.6
20260902091528 75 82 0.0 0.0 0.00 0.00 0.00 87 1017.0
20260902091507 75 52 0.0 0.0 0.00 0.00 0.00 88 1016.6
20260902090006 75 52 0.0 0.0 0.00 0.00 0.00 88 1016.7
20260902084505 75 51 0.0 0.0 0.00 0.00 0.00 87 1016.6
20260902083022 76 54 0.0 0.0 0.00 0.00 0.00 86 1016.9
20260902083002 75 24 0.0 0.0 0.00 0.00 0.00 86 1016.6
20260902081511 76 55 0.0 0.0 0.00 0.00 0.00 84 1016.8
20260902081501 76 24 0.0 0.0 0.00 0.00 0.00 84 1016.5
20260902080059 76 24 0.0 0.0 0.00 0.00 0.00 84 1016.5
20260902080007 76 54 0.0 0.0 0.00 0.00 0.00 83 1016.7
20260902074600 76 25 0.0 0.0 0.00 0.00 0.00 84 1016.6
20260902074505 77 54 0.0 0.0 0.00 0.00 0.00 83 1016.7
20260902073058 77 24 0.0 0.0 0.00 0.00 0.00 83 1016.5
20260902073008 77 54 0.0 0.0 0.00 0.00 0.00 82 1016.7
20260902071603 77 24 0.0 0.0 0.00 0.00 0.00 83 1016.5
20260902071503 77 54 0.0 0.0 0.00 0.00 0.00 83 1016.9
20260902070055 77 24 0.0 0.0 0.00 0.00 0.00 83 1016.6
20260902070016 77 54 0.0 0.0 0.00 0.00 0.00 82 1016.8
20260902064614 77 25 0.0 0.0 0.00 0.00 0.00 83 1016.7
20260902064517 77 54 0.0 0.0 0.00 0.00 0.00 83 1016.9
20260902063056 77 25 0.0 0.0 0.00 0.00 0.00 84 1016.7
20260902063014 77 55 0.0 0.0 0.00 0.00 0.00 83 1016.8
20260902061553 77 25 0.0 0.0 0.00 0.00 0.00 82 1016.5
20260902061508 78 54 0.0 0.0 0.00 0.00 0.00 82 1016.8
20260902060059 77 24 0.0 0.0 0.00 0.00 0.00 81 1016.6
20260902060008 78 55 0.0 0.0 0.00 0.00 0.00 80 1016.8
20260902054548 78 24 0.0 0.0 0.00 0.00 0.00 81 1016.5
20260902054510 78 55 0.0 0.0 0.00 0.00 0.00 81 1016.7
20260902053046 78 24 0.0 0.0 0.00 0.00 0.00 79 1016.5
20260902053022 78 54 0.0 0.0 0.00 0.00 0.00 79 1016.6
20260902051545 78 25 0.0 0.0 0.00 0.00 0.00 81 1016.3
20260902051522 79 54 0.0 0.0 0.00 0.00 0.00 80 1016.5
20260902050015 79 41 0.0 0.0 0.00 0.00 0.00 78 1016.4
20260902044601 79 11 0.0 0.0 0.00 0.00 0.00 77 1016.1
20260902044508 79 40 0.0 0.0 0.00 0.00 0.00 77 1016.4
20260902043039 79 10 0.0 0.0 0.00 0.00 0.00 78 1016.0
20260902043009 80 41 0.0 0.0 0.00 0.00 0.00 78 1016.4
20260902041540 79 309 0.0 0.0 0.00 0.00 0.00 78 1016.1
20260902041505 80 339 0.0 0.0 0.00 0.00 0.00 77 1016.3
20260902040041 80 309 0.0 0.0 0.00 0.00 0.00 75 1016.0
20260902040024 80 339 0.0 0.0 0.00 0.00 0.00 74 1016.3
20260902034541 80 309 0.0 0.0 0.00 0.00 0.00 73 1016.0
20260902034520 80 339 0.0 0.0 0.00 0.00 0.00 73 1016.3
20260902033037 80 309 0.0 0.0 0.00 0.00 0.00 72 1016.1
20260902033016 81 339 0.0 0.0 0.00 0.00 0.00 71 1016.3
20260902031540 81 309 0.0 0.0 0.00 0.00 0.00 70 1016.0
20260902031511 81 339 0.0 0.0 0.00 0.00 0.00 70 1016.3
20260902030036 81 309 0.0 0.0 0.00 0.00 0.00 69 1015.7
20260902030008 82 339 0.0 0.0 0.00 0.00 0.00 68 1016.1
20260902024540 82 309 0.0 0.0 0.00 0.00 0.00 68 1015.6
20260902024505 82 339 0.0 0.0 0.00 0.00 0.00 68 1015.9
20260902023038 82 309 0.0 0.0 0.00 0.00 0.00 67 1015.6
20260902021547 83 309 0.0 0.0 0.00 0.00 0.00 66 1015.3
20260902021538 83 339 0.0 0.0 0.00 0.00 0.00 65 1015.6
20260902020034 84 309 0.0 0.0 0.00 0.00 0.00 66 1015.1
20260902020018 84 339 0.0 0.0 0.00 0.00 0.00 65 1015.5
20260902014540 84 309 0.0 0.0 0.00 0.00 0.00 65 1015.0
20260902014514 85 339 0.0 0.0 0.00 0.00 0.00 65 1015.2
20260902013033 85 309 0.0 0.0 0.00 0.00 0.00 63 1014.8
20260902013014 85 339 0.0 0.0 0.00 0.00 0.00 63 1015.1
20260902011533 85 309 0.0 0.0 0.00 0.00 0.00 64 1014.6
20260902011531 86 339 0.0 0.0 0.00 0.00 0.00 64 1015.0
20260902010032 86 309 0.0 0.0 0.00 0.00 0.00 63 1014.6
20260902010027 86 339 0.0 0.0 0.00 0.00 0.00 62 1014.9
20260902004531 87 309 0.0 0.0 0.00 0.00 0.00 60 1014.8
20260902004527 88 339 0.0 0.0 0.00 0.00 0.00 59 1015.0
20260902003030 89 309 0.0 0.0 0.00 0.00 0.00 57 1014.7
20260902003025 89 339 0.0 0.0 0.00 0.00 0.00 56 1015.0
20260902001533 91 309 0.0 0.0 0.00 0.00 0.00 53 1014.7
20260902001518 92 339 0.0 0.0 0.00 0.00 0.00 52 1015.0
20260902000056 92 309 0.0 0.0 0.00 0.00 0.00 50 1014.9
20260902000016 93 339 0.0 0.0 0.00 0.00 0.00 50 1015.1
20260901234630 93 309 0.0 0.0 0.00 0.00 0.00 50 1014.9
20260901234531 93 339 0.0 0.0 0.00 0.00 0.00 49 1015.2
20260901233139 93 311 0.0 0.0 0.00 0.00 0.00 49 1015.0
20260901233028 94 341 0.0 0.0 0.00 0.00 0.00 49 1015.2
20260901231618 94 309 0.0 0.0 0.00 0.00 0.00 48 1015.1
20260901231527 94 339 0.0 0.0 0.00 0.00 0.00 48 1015.3
20260901230034 94 339 0.0 1.0 0.00 0.00 0.00 47 1015.3
20260901230029 94 309 0.0 0.0 0.00 0.00 0.00 48 1014.9
20260901224629 94 308 0.0 1.0 0.00 0.00 0.00 47 1014.9
20260901224523 95 341 0.0 0.0 0.00 0.00 0.00 46 1015.2
20260901223133 94 311 0.0 0.0 0.00 0.00 0.00 45 1014.8
20260901223019 95 341 0.0 0.0 0.00 0.00 0.00 45 1015.1
20260901221533 95 343 0.0 0.0 0.00 0.00 0.00 45 1015.1
20260901221510 94 312 0.0 0.0 0.00 0.00 0.00 45 1014.8
20260901220053 95 74 0.0 2.0 0.00 0.00 0.00 45 1015.2
20260901220009 95 96 0.0 2.0 0.00 0.00 0.00 45 1014.9
20260901214529 95 57 0.0 2.0 0.00 0.00 0.00 45 1015.1
20260901214507 95 27 0.0 2.0 0.00 0.00 0.00 46 1014.8
20260901213057 95 71 0.0 2.0 0.00 0.00 0.00 48 1015.2
20260901213006 95 39 0.0 2.0 0.00 0.00 0.00 49 1015.0
20260901211524 95 119 0.0 7.0 0.00 0.00 0.00 45 1015.4
20260901211505 95 48 0.0 7.0 0.00 0.00 0.00 46 1015.1
20260901210019 95 341 0.0 1.0 0.00 0.00 0.00 47 1015.6
20260901210002 95 311 0.0 1.0 0.00 0.00 0.00 48 1015.3
20260901204602 94 311 0.0 2.0 0.00 0.00 0.00 46 1015.4
20260901204515 95 300 0.0 2.0 0.00 0.00 0.00 47 1015.7
20260901203118 94 62 0.0 2.0 0.00 0.00 0.00 46 1015.6
20260901203030 95 92 0.0 2.0 0.00 0.00 0.00 45 1015.9
20260901201556 95 93 0.0 1.0 0.00 0.00 0.00 43 1015.8
20260901201506 95 123 0.0 1.0 0.00 0.00 0.00 44 1016.2
20260901200053 94 17 0.0 1.0 0.00 0.00 0.00 44 1015.8
20260901200004 94 48 0.0 1.0 0.00 0.00 0.00 46 1016.3
20260901194552 94 60 0.0 1.0 0.00 0.00 0.00 48 1016.1
20260901194537 94 90 0.0 1.0 0.00 0.00 0.00 44 1016.4
20260901193052 94 86 0.0 1.0 0.00 0.00 0.00 46 1016.2
20260901193023 94 116 0.0 1.0 0.00 0.00 0.00 46 1016.5
20260901191541 93 93 1.0 6.0 0.00 0.00 0.00 48 1016.3
20260901191518 93 128 2.0 6.0 0.00 0.00 0.00 48 1016.5
20260901190037 93 70 0.0 2.0 0.00 0.00 0.00 51 1016.4
20260901190013 93 100 0.0 2.0 0.00 0.00 0.00 51 1016.7
20260901184520 92 46 0.0 3.0 0.00 0.00 0.00 53 1016.8
20260901183007 92 89 0.0 1.0 0.00 0.00 0.00 54 1016.9
20260901181629 91 105 0.0 2.0 0.00 0.00 0.00 54 1017.0
20260901181529 92 143 0.0 2.0 0.00 0.00 0.00 53 1017.4
20260901180026 91 71 0.0 2.0 0.00 0.00 0.00 59 1017.7
20260901180020 90 41 0.0 1.0 0.00 0.00 0.00 59 1017.4
20260901174538 89 81 0.0 3.0 0.00 0.00 0.00 58 1017.7
20260901174523 90 114 0.0 3.0 0.00 0.00 0.00 58 1018.1
20260901173102 89 67 0.0 1.0 0.00 0.00 0.00 62 1017.8
20260901173014 89 97 0.0 1.0 0.00 0.00 0.00 61 1018.3
20260901171612 88 72 0.0 0.0 0.00 0.00 0.00 63 1018.0
20260901171511 88 102 0.0 2.0 0.00 0.00 0.00 63 1018.5
20260901170105 88 72 1.0 3.0 0.00 0.00 0.00 60 1018.1
20260901170008 88 102 1.0 3.0 0.00 0.00 0.00 60 1018.6
20260901164556 87 83 0.0 1.0 0.00 0.00 0.00 65 1018.4
20260901164530 88 113 0.0 1.0 0.00 0.00 0.00 64 1018.8
20260901163052 87 93 0.0 2.0 0.00 0.00 0.00 63 1018.6
20260901163026 87 123 0.0 2.0 0.00 0.00 0.00 63 1019.1
20260901161550 86 91 0.0 3.0 0.00 0.00 0.00 65 1018.7
20260901161524 87 121 0.0 3.0 0.00 0.00 0.00 65 1019.2
20260901160045 85 55 0.0 0.0 0.00 0.00 0.00 70 1018.9
20260901160027 85 84 0.0 0.0 0.00 0.00 0.00 68 1019.2
20260901154542 84 72 0.0 0.0 0.00 0.00 0.00 71 1018.9
20260901154519 84 102 0.0 0.0 0.00 0.00 0.00 70 1019.2
20260901153046 83 72 0.0 0.0 0.00 0.00 0.00 70 1018.9
20260901153012 84 102 0.0 0.0 0.00 0.00 0.00 71 1019.2
20260901151538 83 56 0.0 0.0 0.00 0.00 0.00 72 1019.0
20260901151531 83 87 0.0 0.0 0.00 0.00 0.00 72 1019.2
20260901150034 82 56 0.0 0.0 0.00 0.00 0.00 74 1019.0
20260901150031 82 86 0.0 0.0 0.00 0.00 0.00 73 1019.2
20260901144533 81 56 0.0 0.0 0.00 0.00 0.00 80 1019.1
20260901144525 81 86 0.0 0.0 0.00 0.00 0.00 80 1019.2
20260901143026 79 56 0.0 0.0 0.00 0.00 0.00 84 1019.0
20260901143023 80 86 0.0 0.0 0.00 0.00 0.00 83 1019.2
20260901141534 79 56 0.0 0.0 0.00 0.00 0.00 86 1019.0
20260901141518 79 86 0.0 0.0 0.00 0.00 0.00 85 1019.2
20260901140044 78 86 0.0 0.0 0.00 0.00 0.00 85 1019.2
20260901140020 77 55 0.0 0.0 0.00 0.00 0.00 85 1019.0
20260901134531 77 86 0.0 0.0 0.00 0.00 0.00 87 1019.3
20260901134520 76 56 0.0 0.0 0.00 0.00 0.00 87 1019.1
20260901133033 76 86 0.0 0.0 0.00 0.00 0.00 87 1019.2
20260901133019 76 55 0.0 0.0 0.00 0.00 0.00 88 1019.0
20260901131533 75 86 0.0 0.0 0.00 0.00 0.00 88 1019.1
20260901131519 75 56 0.0 0.0 0.00 0.00 0.00 89 1018.9
20260901130036 74 85 0.0 0.0 0.00 0.00 0.00 91 1019.0
20260901130015 74 56 0.0 0.0 0.00 0.00 0.00 91 1018.8
20260901124518 73 86 0.0 0.0 0.00 0.00 0.00 89 1018.9
20260901124515 73 55 0.0 0.0 0.00 0.00 0.00 89 1018.8
20260901123030 73 86 0.0 0.0 0.00 0.00 0.00 90 1018.8
20260901123014 73 56 0.0 0.0 0.00 0.00 0.00 91 1018.7
20260901121532 73 86 0.0 0.0 0.00 0.00 0.00 88 1018.6
20260901121526 72 56 0.0 0.0 0.00 0.00 0.00 89 1018.5
20260901120032 73 56 0.0 0.0 0.00 0.00 0.00 89 1018.2
20260901120011 73 86 0.0 0.0 0.00 0.00 0.00 88 1018.4
20260901114541 72 56 0.0 0.0 0.00 0.00 0.00 90 1018.0
20260901114505 73 86 0.0 0.0 0.00 0.00 0.00 89 1018.2